• In Lithuania
  • List of Countries
  • For 7 days
  • Water Temperature
  • Satellite Maps
  • Weather Map
  • Weather Widgets
  • user-avatar
    Login

    Hourly Weather Juticalpa

    Today, 13 December, Wednesday

    Time Temperature Precipitation Wind Pressure Humidity
    00:00 +20°C° 0 mm 1 mps 730 mmHg 91%
    01:00 +20°C° 0 mm 1 mps 730 mmHg 92%
    02:00 +20°C° 0 mm 1 mps 730 mmHg 93%
    03:00 +19°C° 0 mm 1 mps 730 mmHg 94%
    04:00 +19°C° 0 mm 1 mps 730 mmHg 94%
    05:00 +19°C° 0 mm 1 mps 730 mmHg 95%
    06:00 +18°C° 0 mm 1 mps 730 mmHg 96%
    07:00 +20°C° 0 mm 1 mps 730 mmHg 87%
    08:00 +22°C° 0 mm 1 mps 731 mmHg 79%
    09:00 +24°C° 0 mm 2 mps 732 mmHg 70%
    10:00 +25°C° 0 mm 2 mps 731 mmHg 67%
    11:00 +25°C° 0 mm 2 mps 731 mmHg 65%
    12:00 +26°C° 0 mm 2 mps 730 mmHg 63%
    13:00 +25°C° 0 mm 2 mps 730 mmHg 64%
    14:00 +25°C° 0 mm 2 mps 729 mmHg 66%
    15:00 +25°C° 0 mm 2 mps 729 mmHg 68%
    16:00 +24°C° 0 mm 1 mps 729 mmHg 74%
    17:00 +22°C° 0 mm 1 mps 729 mmHg 79%
    18:00 +21°C° 0 mm 1 mps 729 mmHg 85%
    19:00 +20°C° 0 mm 1 mps 730 mmHg 88%
    20:00 +19°C° 0 mm 1 mps 730 mmHg 91%
    21:00 +19°C° 0 mm 1 mps 730 mmHg 94%
    22:00 +16°C° 0 mm 0 mps 730 mmHg 95%
    23:00 +16°C° 0 mm 0 mps 730 mmHg 96%

    Tomorrow, 14 December, Thursday

    Time Temperature Precipitation Wind Pressure Humidity
    00:00 +16°C° 0 mm 0 mps 730 mmHg 96%
    01:00 +15°C° 0 mm 0 mps 729 mmHg 97%
    02:00 +15°C° 0 mm 0 mps 729 mmHg 97%
    03:00 +15°C° 0 mm 0 mps 728 mmHg 97%
    04:00 +15°C° 0 mm 0 mps 728 mmHg 97%
    05:00 +15°C° 0 mm 0 mps 728 mmHg 97%
    06:00 +15°C° 0 mm 0 mps 728 mmHg 97%
    07:00 +18°C° 0 mm 0 mps 729 mmHg 85%
    08:00 +20°C° 0 mm 0 mps 730 mmHg 74%
    09:00 +23°C° 0 mm 0 mps 730 mmHg 62%
    10:00 +27°C° 0 mm 1 mps 730 mmHg 57%
    11:00 +28°C° 0 mm 1 mps 729 mmHg 51%
    12:00 +30°C° 0 mm 1 mps 728 mmHg 46%
    13:00 +30°C° 0 mm 1 mps 728 mmHg 47%
    14:00 +30°C° 0 mm 1 mps 727 mmHg 49%
    15:00 +30°C° 0 mm 1 mps 727 mmHg 50%
    16:00 +28°C° 0 mm 1 mps 727 mmHg 60%
    17:00 +26°C° 0 mm 1 mps 727 mmHg 70%
    18:00 +24°C° 0 mm 1 mps 727 mmHg 80%
    19:00 +23°C° 0 mm 1 mps 728 mmHg 84%
    20:00 +20°C° 0 mm 0 mps 728 mmHg 88%
    21:00 +19°C° 0 mm 0 mps 729 mmHg 93%
    22:00 +19°C° 0 mm 0 mps 729 mmHg 94%
    23:00 +19°C° 0 mm 0 mps 728 mmHg 96%

    Day after tomorrow, 15 December, Friday

    Time Temperature Precipitation Wind Pressure Humidity
    00:00 +19°C° 0 mm 0 mps 728 mmHg 98%
    01:00 +19°C° 0 mm 0 mps 728 mmHg 98%
    02:00 +19°C° 0 mm 0 mps 727 mmHg 98%
    03:00 +19°C° 0 mm 0 mps 727 mmHg 98%
    04:00 +19°C° 0 mm 0 mps 727 mmHg 98%
    05:00 +19°C° 0 mm 0 mps 728 mmHg 97%
    06:00 +19°C° 0 mm 0 mps 728 mmHg 97%
    07:00 +21°C° 0 mm 0 mps 728 mmHg 89%
    08:00 +23°C° 0 mm 0 mps 729 mmHg 81%
    09:00 +25°C° 0 mm 0 mps 729 mmHg 73%
    10:00 +28°C° 0 mm 1 mps 729 mmHg 70%
    11:00 +29°C° 0 mm 1 mps 728 mmHg 66%
    12:00 +30°C° 0 mm 1 mps 728 mmHg 63%
    13:00 +30°C° 0.2 mm 1 mps 727 mmHg 64%
    14:00 +30°C° 0.2 mm 1 mps 726 mmHg 65%
    15:00 +30°C° 0.2 mm 1 mps 726 mmHg 66%
    16:00 +28°C° 0.2 mm 1 mps 726 mmHg 75%
    17:00 +26°C° 0.2 mm 1 mps 726 mmHg 84%
    18:00 +24°C° 0.2 mm 1 mps 727 mmHg 94%
    19:00 +24°C° 0 mm 1 mps 727 mmHg 95%
    20:00 +21°C° 0 mm 0 mps 728 mmHg 96%
    21:00 +21°C° 0 mm 0 mps 729 mmHg 97%
    22:00 +21°C° 0 mm 0 mps 728 mmHg 98%
    23:00 +20°C° 0 mm 0 mps 728 mmHg 98%

    16 December, Saturday

    Time Temperature Precipitation Wind Pressure Humidity
    00:00 +20°C° 0 mm 0 mps 728 mmHg 98%
    01:00 +20°C° 0 mm 0 mps 728 mmHg 98%
    02:00 +20°C° 0 mm 0 mps 728 mmHg 98%
    03:00 +20°C° 0 mm 0 mps 727 mmHg 98%
    04:00 +20°C° 0.1 mm 0 mps 728 mmHg 98%
    05:00 +20°C° 0.1 mm 0 mps 728 mmHg 97%
    06:00 +20°C° 0.1 mm 0 mps 728 mmHg 97%
    07:00 +21°C° 0.2 mm 0 mps 729 mmHg 95%
    08:00 +22°C° 0.2 mm 0 mps 729 mmHg 94%
    09:00 +25°C° 0.2 mm 1 mps 730 mmHg 92%
    10:00 +26°C° 0.2 mm 1 mps 729 mmHg 83%
    11:00 +28°C° 0.2 mm 1 mps 729 mmHg 75%
    12:00 +30°C° 0.2 mm 2 mps 728 mmHg 66%
    13:00 +30°C° 0.1 mm 2 mps 728 mmHg 63%
    14:00 +30°C° 0.1 mm 2 mps 727 mmHg 60%
    15:00 +31°C° 0.1 mm 2 mps 727 mmHg 57%
    16:00 +29°C° 0 mm 2 mps 727 mmHg 67%
    17:00 +27°C° 0 mm 1 mps 727 mmHg 76%
    18:00 +25°C° 0 mm 1 mps 727 mmHg 85%
    19:00 +24°C° 0.1 mm 1 mps 728 mmHg 89%
    20:00 +23°C° 0.1 mm 1 mps 728 mmHg 93%
    21:00 +23°C° 0.1 mm 1 mps 729 mmHg 97%
    22:00 +22°C° 0 mm 1 mps 729 mmHg 97%
    23:00 +22°C° 0 mm 1 mps 729 mmHg 98%

    17 December, Sunday

    Time Temperature Precipitation Wind Pressure Humidity
    00:00 +20°C° 0 mm 0 mps 728 mmHg 98%
    01:00 +19°C° 0 mm 0 mps 728 mmHg 98%
    02:00 +19°C° 0 mm 0 mps 728 mmHg 98%
    03:00 +19°C° 0 mm 0 mps 728 mmHg 98%
    04:00 +19°C° 0.1 mm 0 mps 728 mmHg 97%
    05:00 +19°C° 0.1 mm 0 mps 728 mmHg 96%
    06:00 +19°C° 0.1 mm 0 mps 729 mmHg 95%
    07:00 +21°C° 0.1 mm 0 mps 729 mmHg 91%
    08:00 +24°C° 0.1 mm 1 mps 729 mmHg 86%
    09:00 +26°C° 0.1 mm 1 mps 730 mmHg 82%
    10:00 +26°C° 0.1 mm 1 mps 729 mmHg 80%
    11:00 +27°C° 0.1 mm 1 mps 729 mmHg 77%
    12:00 +28°C° 0.1 mm 2 mps 728 mmHg 75%
    13:00 +28°C° 0.2 mm 2 mps 727 mmHg 72%
    14:00 +29°C° 0.2 mm 2 mps 727 mmHg 68%
    15:00 +29°C° 0.2 mm 2 mps 726 mmHg 65%
    16:00 +28°C° 0.1 mm 2 mps 727 mmHg 74%
    17:00 +26°C° 0.1 mm 1 mps 727 mmHg 83%
    18:00 +24°C° 0.1 mm 1 mps 727 mmHg 91%
    19:00 +24°C° 0.1 mm 1 mps 728 mmHg 93%
    20:00 +24°C° 0.1 mm 1 mps 728 mmHg 95%
    21:00 +23°C° 0.1 mm 1 mps 729 mmHg 96%
    22:00 +23°C° 0.1 mm 1 mps 728 mmHg 97%
    23:00 +21°C° 0.1 mm 0 mps 728 mmHg 98%

    18 December, Monday

    Time Temperature Precipitation Wind Pressure Humidity
    00:00 +20°C° 0.1 mm 0 mps 728 mmHg 98%
    01:00 +20°C° 0.1 mm 0 mps 728 mmHg 98%
    02:00 +20°C° 0.1 mm 0 mps 727 mmHg 98%
    03:00 +20°C° 0.1 mm 0 mps 727 mmHg 97%
    04:00 +21°C° 0.1 mm 0 mps 727 mmHg 97%
    05:00 +21°C° 0.1 mm 0 mps 728 mmHg 97%
    06:00 +21°C° 0.1 mm 0 mps 728 mmHg 96%
    07:00 +21°C° 0.2 mm 0 mps 728 mmHg 96%
    08:00 +24°C° 0.2 mm 1 mps 729 mmHg 95%
    09:00 +24°C° 0.2 mm 1 mps 729 mmHg 95%
    10:00 +24°C° 0.6 mm 1 mps 729 mmHg 95%
    11:00 +24°C° 0.6 mm 1 mps 728 mmHg 96%
    12:00 +24°C° 0.6 mm 1 mps 728 mmHg 96%
    13:00 +25°C° 0.3 mm 1 mps 727 mmHg 94%
    14:00 +25°C° 0.3 mm 1 mps 727 mmHg 92%
    15:00 +26°C° 0.3 mm 1 mps 727 mmHg 90%
    16:00 +25°C° 0.2 mm 1 mps 727 mmHg 92%
    17:00 +24°C° 0.2 mm 1 mps 727 mmHg 94%
    18:00 +22°C° 0.2 mm 0 mps 727 mmHg 97%
    19:00 +21°C° 0 mm 0 mps 728 mmHg 97%
    20:00 +21°C° 0 mm 0 mps 728 mmHg 97%
    21:00 +20°C° 0 mm 0 mps 729 mmHg 98%
    22:00 +20°C° 0 mm 0 mps 729 mmHg 98%
    23:00 +20°C° 0 mm 0 mps 728 mmHg 98%
    Show more